When you browse on this site, cookies collect data to enhance your experience and personalize the content and advertising you see.
Visit our Privacy Policy to learn more. By continuing to use the site, you agree to this use of cookies and data.
  • Em Portugal
  • Lista de países
  • Para 7 dias
  • Temperatura da água
  • Mapas de satélite
  • Mapa do tempo
  • Widgets de tempo
  • user-avatar
    Iniciar Sessão

    Previsão horária em Trinidad

    Hoje, 17 Novembro, Sábado

    Tempo Temperatura Precipitação Vento Pressão Humidade
    00:00 +26°C° 0.3 mm 1 m/s 742 mmHg 91%
    01:00 +26°C° 0.3 mm 1 m/s 742 mmHg 91%
    02:00 +26°C° 0 mm 1 m/s 742 mmHg 94%
    03:00 +26°C° 0.9 mm 1 m/s 742 mmHg 95%
    04:00 +25°C° 0.9 mm 1 m/s 742 mmHg 96%
    05:00 +25°C° 0.9 mm 1 m/s 742 mmHg 97%
    06:00 +26°C° 0.8 mm 1 m/s 743 mmHg 96%
    07:00 +26°C° 0.8 mm 1 m/s 743 mmHg 94%
    08:00 +28°C° 0 mm 1 m/s 743 mmHg 89%
    09:00 +29°C° 0.9 mm 1 m/s 743 mmHg 84%
    10:00 +30°C° 0.9 mm 2 m/s 743 mmHg 80%
    11:00 +31°C° 0.9 mm 2 m/s 743 mmHg 75%
    12:00 +32°C° 0.5 mm 2 m/s 742 mmHg 72%
    13:00 +32°C° 0.5 mm 2 m/s 741 mmHg 69%
    14:00 +34°C° 0.5 mm 2 m/s 741 mmHg 66%
    15:00 +34°C° 0.1 mm 2 m/s 740 mmHg 67%
    16:00 +32°C° 0.1 mm 2 m/s 740 mmHg 69%
    17:00 +32°C° 0.1 mm 2 m/s 739 mmHg 70%
    18:00 +31°C° 0 mm 2 m/s 740 mmHg 75%
    19:00 +29°C° 0 mm 2 m/s 740 mmHg 80%
    20:00 +28°C° 0 mm 1 m/s 740 mmHg 85%
    21:00 +28°C° 0 mm 1 m/s 741 mmHg 86%
    22:00 +28°C° 0 mm 1 m/s 741 mmHg 87%
    23:00 +27°C° 0 mm 1 m/s 742 mmHg 87%

    Amanhã, 18 Novembro, Domingo

    Tempo Temperatura Precipitação Vento Pressão Humidade
    00:00 +27°C° 0 mm 1 m/s 741 mmHg 87%
    01:00 +27°C° 0 mm 2 m/s 741 mmHg 86%
    02:00 +27°C° 0 mm 2 m/s 741 mmHg 86%
    03:00 +27°C° 0 mm 2 m/s 741 mmHg 87%
    04:00 +26°C° 0 mm 2 m/s 741 mmHg 88%
    05:00 +26°C° 0 mm 1 m/s 741 mmHg 89%
    06:00 +27°C° 0 mm 2 m/s 741 mmHg 84%
    07:00 +28°C° 0 mm 2 m/s 742 mmHg 79%
    08:00 +30°C° 0 mm 2 m/s 742 mmHg 74%
    09:00 +31°C° 0 mm 2 m/s 742 mmHg 67%
    10:00 +34°C° 0 mm 3 m/s 742 mmHg 59%
    11:00 +36°C° 0 mm 3 m/s 742 mmHg 51%
    12:00 +37°C° 0 mm 3 m/s 742 mmHg 49%
    13:00 +38°C° 0 mm 3 m/s 741 mmHg 47%
    14:00 +38°C° 0 mm 3 m/s 740 mmHg 45%
    15:00 +38°C° 0 mm 3 m/s 740 mmHg 48%
    16:00 +37°C° 0 mm 2 m/s 740 mmHg 52%
    17:00 +36°C° 0 mm 2 m/s 739 mmHg 55%
    18:00 +35°C° 0 mm 2 m/s 740 mmHg 61%
    19:00 +32°C° 0 mm 1 m/s 741 mmHg 67%
    20:00 +30°C° 0 mm 1 m/s 741 mmHg 73%
    21:00 +29°C° 0.2 mm 1 m/s 742 mmHg 76%
    22:00 +29°C° 0.2 mm 1 m/s 742 mmHg 78%
    23:00 +28°C° 0.2 mm 1 m/s 743 mmHg 81%

    Depois de amanhã, 19 Novembro, Segunda-feira

    Tempo Temperatura Precipitação Vento Pressão Humidade
    00:00 +27°C° 3 mm 1 m/s 743 mmHg 86%
    01:00 +26°C° 3 mm 2 m/s 743 mmHg 91%
    02:00 +25°C° 3 mm 3 m/s 743 mmHg 96%
    03:00 +24°C° 0.9 mm 2 m/s 743 mmHg 96%
    04:00 +24°C° 0.9 mm 2 m/s 743 mmHg 96%
    05:00 +24°C° 0.9 mm 2 m/s 743 mmHg 96%
    06:00 +24°C° 0.2 mm 2 m/s 744 mmHg 94%
    07:00 +24°C° 0.2 mm 2 m/s 744 mmHg 93%
    08:00 +24°C° 0.2 mm 3 m/s 745 mmHg 91%
    09:00 +26°C° 0.2 mm 3 m/s 745 mmHg 86%
    10:00 +27°C° 0.2 mm 3 m/s 745 mmHg 82%
    11:00 +28°C° 0.2 mm 3 m/s 745 mmHg 77%
    12:00 +28°C° 0.1 mm 3 m/s 745 mmHg 75%
    13:00 +29°C° 0.1 mm 3 m/s 744 mmHg 72%
    14:00 +29°C° 0.1 mm 2 m/s 743 mmHg 70%
    15:00 +29°C° 0 mm 2 m/s 743 mmHg 70%
    16:00 +29°C° 0 mm 2 m/s 742 mmHg 69%
    17:00 +29°C° 0 mm 2 m/s 742 mmHg 69%
    18:00 +28°C° 0 mm 1 m/s 742 mmHg 75%
    19:00 +27°C° 0 mm 1 m/s 742 mmHg 80%
    20:00 +26°C° 0 mm 1 m/s 743 mmHg 85%
    21:00 +26°C° 0 mm 1 m/s 743 mmHg 86%
    22:00 +25°C° 0 mm 1 m/s 744 mmHg 87%
    23:00 +25°C° 0 mm 1 m/s 744 mmHg 88%

    20 Novembro, Terça-feira

    Tempo Temperatura Precipitação Vento Pressão Humidade
    00:00 +25°C° 0 mm 1 m/s 744 mmHg 88%
    01:00 +24°C° 0 mm 1 m/s 743 mmHg 87%
    02:00 +22°C° 0 mm 0 m/s 743 mmHg 87%
    03:00 +22°C° 0 mm 0 m/s 743 mmHg 87%
    04:00 +24°C° 0 mm 1 m/s 743 mmHg 86%
    05:00 +24°C° 0 mm 1 m/s 743 mmHg 86%
    06:00 +25°C° 0 mm 1 m/s 743 mmHg 81%
    07:00 +26°C° 0 mm 1 m/s 744 mmHg 77%
    08:00 +27°C° 0 mm 1 m/s 744 mmHg 73%
    09:00 +28°C° 0.1 mm 1 m/s 745 mmHg 69%
    10:00 +30°C° 0.1 mm 1 m/s 745 mmHg 66%
    11:00 +31°C° 0.1 mm 1 m/s 745 mmHg 62%
    12:00 +32°C° 0 mm 1 m/s 744 mmHg 58%
    13:00 +34°C° 0 mm 1 m/s 743 mmHg 54%
    14:00 +35°C° 0 mm 1 m/s 742 mmHg 50%
    15:00 +35°C° 0 mm 1 m/s 741 mmHg 53%
    16:00 +34°C° 0 mm 1 m/s 740 mmHg 55%
    17:00 +33°C° 0 mm 1 m/s 740 mmHg 57%
    18:00 +32°C° 0 mm 1 m/s 740 mmHg 63%
    19:00 +30°C° 0 mm 1 m/s 741 mmHg 69%
    20:00 +29°C° 0 mm 1 m/s 742 mmHg 75%
    21:00 +28°C° 0.3 mm 1 m/s 742 mmHg 79%
    22:00 +28°C° 0.3 mm 1 m/s 743 mmHg 82%
    23:00 +27°C° 0.3 mm 1 m/s 743 mmHg 86%

    21 Novembro, Quarta-feira

    Tempo Temperatura Precipitação Vento Pressão Humidade
    00:00 +27°C° 0.1 mm 1 m/s 743 mmHg 89%
    01:00 +26°C° 0.1 mm 1 m/s 742 mmHg 91%
    02:00 +26°C° 0.1 mm 1 m/s 742 mmHg 94%
    03:00 +26°C° 0.4 mm 1 m/s 742 mmHg 95%
    04:00 +25°C° 0.4 mm 1 m/s 742 mmHg 96%
    05:00 +25°C° 0.4 mm 1 m/s 742 mmHg 97%
    06:00 +26°C° 0.1 mm 1 m/s 743 mmHg 93%
    07:00 +27°C° 0.1 mm 1 m/s 743 mmHg 89%
    08:00 +28°C° 0.1 mm 1 m/s 744 mmHg 85%
    09:00 +30°C° 1.3 mm 1 m/s 744 mmHg 82%
    10:00 +31°C° 1.3 mm 1 m/s 743 mmHg 80%
    11:00 +32°C° 1.3 mm 2 m/s 743 mmHg 77%
    12:00 +32°C° 1.7 mm 2 m/s 742 mmHg 77%
    13:00 +32°C° 1.7 mm 2 m/s 741 mmHg 78%
    14:00 +32°C° 1.7 mm 2 m/s 740 mmHg 78%
    15:00 +32°C° 0.3 mm 2 m/s 740 mmHg 76%
    16:00 +31°C° 0.3 mm 2 m/s 740 mmHg 75%
    17:00 +31°C° 0.3 mm 1 m/s 739 mmHg 73%
    18:00 +30°C° 0 mm 1 m/s 740 mmHg 77%
    19:00 +29°C° 0 mm 1 m/s 740 mmHg 81%
    20:00 +28°C° 0 mm 1 m/s 741 mmHg 85%
    21:00 +28°C° 0 mm 1 m/s 741 mmHg 85%
    22:00 +28°C° 0 mm 1 m/s 741 mmHg 86%
    23:00 +27°C° 0 mm 1 m/s 742 mmHg 86%

    22 Novembro, Quinta-feira

    Tempo Temperatura Precipitação Vento Pressão Humidade
    00:00 +27°C° 0 mm 1 m/s 741 mmHg 87%
    01:00 +27°C° 0 mm 1 m/s 741 mmHg 87%
    02:00 +27°C° 0 mm 1 m/s 741 mmHg 88%
    03:00 +27°C° 0 mm 1 m/s 740 mmHg 89%
    04:00 +26°C° 0 mm 1 m/s 740 mmHg 89%
    05:00 +26°C° 0 mm 1 m/s 740 mmHg 90%
    06:00 +27°C° 0 mm 2 m/s 741 mmHg 85%
    07:00 +28°C° 0 mm 2 m/s 742 mmHg 81%
    08:00 +29°C° 0 mm 3 m/s 742 mmHg 77%
    09:00 +31°C° 0 mm 3 m/s 742 mmHg 70%
    10:00 +33°C° 0 mm 3 m/s 742 mmHg 64%
    11:00 +35°C° 0 mm 3 m/s 742 mmHg 57%
    12:00 +35°C° 0 mm 3 m/s 741 mmHg 55%
    13:00 +36°C° 0 mm 3 m/s 740 mmHg 53%
    14:00 +37°C° 0 mm 3 m/s 739 mmHg 51%
    15:00 +36°C° 0 mm 3 m/s 739 mmHg 54%
    16:00 +35°C° 0 mm 2 m/s 738 mmHg 57%
    17:00 +35°C° 0 mm 2 m/s 738 mmHg 60%
    18:00 +32°C° 0 mm 2 m/s 738 mmHg 65%
    19:00 +31°C° 0 mm 2 m/s 739 mmHg 70%
    20:00 +30°C° 0 mm 2 m/s 739 mmHg 75%
    21:00 +29°C° 0.2 mm 2 m/s 739 mmHg 78%
    22:00 +29°C° 0.2 mm 1 m/s 740 mmHg 81%
    23:00 +28°C° 0.2 mm 1 m/s 740 mmHg 84%
    Mostrar mais